Location: Moscow
(38.3171°N, 79.0889°W)
Time: 23:02:57
(UTC+00:00)

Cosmos 1269 Rocket - Pass Details

Date: 07 November 2025
Orbit: 768 x 775 km, 74.1° (Epoch: 14 December)

Event Time Altitude Azimuth Distance (km) Brightness Sun altitude
Rises 23:38:00 0° 191° (S) 3,221 7.5 -17.5°
Reaches altitude 10° 23:40:22 10° 189° (S) 2,299 6.7 -18.0°
Maximum altitude 23:45:33 71° 105° (ESE) 811 3.9 -19.0°
Enters shadow 23:49:49 16° 24° (NNE) 1,945 5.8 -19.8°
